Location: Franzen
(48.6167°N, 15.3833°E)
Time: 13:29:24
(UTC+00:00)

Cosmos 1606 - Pass Details

Date: 22 April 2021
Orbit: 503 x 526 km, 82.5° (Epoch: 16 May)

Event Time Altitude Azimuth Distance (km) Brightness Sun altitude
Exits shadow 20:31:51 20° 59° (ENE) 1,228 4.5 -21.0°
Drops below altitude 10° 20:33:36 10° 35° (NE) 1,724 5.5 -21.2°
Sets 20:36:00 0° 21° (NNE) 2,615 6.7 -21.4°
